Regional Weather Roundup
Issued by NWS

Home | Current Version | Previous Version | Graphics & Text | Print | Product List | Glossary On
Versions: 1 2 3 4 5 6 7 8 9 10 11 12 13 14 15 16 17 18 19 20 21 22 23 24 25 26 27 28 29 30 31 32 33 34 35 36 37 38 39 40 41 42 43 44 45 46 47 48 49 50
000
ASUS43 KOAX 260302
RWRNE

WEATHER ROUNDUP FOR NEBRASKA
NATIONAL WEATHER SERVICE OMAHA NE
900 PM CST SAT FEB 25 2017

NOTES: SATELLITE DATA IS BEING USED TO AUGMENT CLOUD COVER ABOVE
       12000 FEET.
       "FAIR" INDICATES FEW OR NO CLOUDS BELOW 12,000 FEET WITH NO
       SIGNIFICANT WEATHER AND/OR OBSTRUCTIONS TO VISIBILITY.

  * THESE STATIONS DO NOT REPORT WEATHER SUCH AS RAIN...SNOW OR FOG.

NEZ001>004-019>022-054>056-260400-
NEBRASKA PANHANDLE

CITY           SKY/WX    TMP DP  RH WIND       PRES   REMARKS
SCOTTSBLUFF    CLEAR     23  10  57 W15       29.77S WCI  10
ALLIANCE       CLEAR     16   8  71 W13       29.75S WCI   2
CHADRON        CLEAR     16   5  62 W7        29.74S WCI   6
KIMBALL        CLOUDY    19  10  67 SW12      29.77F WCI   7
SIDNEY         CLOUDY    21  12  68 W9        29.80F WCI  11
$$

NEZ057>060-069>072-079>082-260400-
SOUTHWEST NEBRASKA

CITY           SKY/WX    TMP DP  RH WIND       PRES   REMARKS
NORTH PLATTE   CLOUDY    24  17  74 CALM      29.85S
IMPERIAL       CLOUDY    29  18  63 SW5       29.87R WCI  24
LEXINGTON      CLOUDY    27  20  73 W6        29.87S WCI  21
MCCOOK         CLOUDY    29  13  51 NW7       29.88F WCI  22
OGALLALA       CLOUDY    24  17  75 W7        29.82F WCI  16
$$

NEZ005>010-023>029-035>040-094-260400-
NORTH CENTRAL NEBRASKA

CITY           SKY/WX    TMP DP  RH WIND       PRES   REMARKS
VALENTINE      CLEAR     15  10  80 SW7       29.77F WCI   5
AINSWORTH      CLEAR     21  18  87 SW9       29.78R WCI  11
BROKEN BOW     CLEAR     16  13  88 W6        29.83F WCI   7
O`NEILL        CLOUDY    25  19  78 SW9       29.82S WCI  15
ORD            CLOUDY    25  18  74 S5        29.83F WCI  19
THEDFORD       CLOUDY    22  14  74 SW9       29.80S WCI  11
$$

NEZ041-046>049-061>064-073>077-083>087-260400-
SOUTH CENTRAL NEBRASKA

CITY           SKY/WX    TMP DP  RH WIND       PRES   REMARKS
GRAND ISLAND   CLEAR     30  23  75 W9        29.88S WCI  22
AURORA         PTCLDY    28  23  82 SW8       29.88S WCI  19
HASTINGS       CLEAR     30  22  72 SW6       29.89F WCI  24
HEBRON         PTCLDY    34  28  77 SW8       29.92S WCI  28
HOLDREGE       CLEAR     27  19  72 SW5       29.88S WCI  21
KEARNEY *      CLEAR     30  19  64 W5        29.88S WCI  25
YORK           PTCLDY    28  27  93 SW7       29.89S WCI  21
$$

NEZ011>018-030>034-042>045-260400-
NORTHEAST NEBRASKA

CITY           SKY/WX    TMP DP  RH WIND       PRES   REMARKS
NORFOLK        CLOUDY    25  20  81 S12       29.84F WCI  14
ALBION         CLOUDY    28  20  71 CALM      29.85F
BLAIR          PTCLDY    31  21  68 S9        29.89S WCI  22
FREMONT        CLEAR     32  22  68 S9        29.89F WCI  24
TEKAMAH        CLEAR     20  15  81 SW5       29.90F WCI  13
WAYNE          CLOUDY    25  20  82 S9        29.86S WCI  15
$$

NEZ050>053-065>068-078-088>093-260400-
SOUTHEAST NEBRASKA

CITY           SKY/WX    TMP DP  RH WIND       PRES   REMARKS
LINCOLN        PTCLDY    34  24  67 SW9       29.92S WCI  27
OMAHA EPPLEY   PTCLDY    32  21  64 S10       29.92F WCI  24
BEATRICE       CLOUDY    37  24  60 SW8       29.93S WCI  30
FALLS CITY     MOCLDY    32  20  61 SE10      29.96F WCI  24
NEBRASKA CITY  CLOUDY    33  19  56 S9        29.94F WCI  25
PLATTSMOUTH    MOCLDY    32  19  58 S10       29.92F WCI  24
$$

NEZ044-045-051>053-067-260400-
OMAHA AREA

CITY           SKY/WX    TMP DP  RH WIND       PRES   REMARKS
OMAHA EPPLEY   PTCLDY    32  21  64 S10       29.92F WCI  24
BLAIR          PTCLDY    31  21  68 S9        29.89S WCI  22
FREMONT        CLEAR     32  22  68 S9        29.89F WCI  24
MILLARD        CLEAR     32  23  69 SE5       29.92F WCI  28
OFFUTT AFB     PTCLDY    30  20  67 SE7       29.92F WCI  23
PLATTSMOUTH    MOCLDY    32  19  58 S10       29.92F WCI  24
WAHOO          FAIR      27  20  77 S8        29.90F WCI  18
$$




USA.gov is the U.S. government's official web portal to all federal, state and local government web resources and services.